sat.trackr.live / text

‹ back to catalog

ONEWEB-0291

NORAD 49081 · 2021-075G

PAYLOAD ACTIVE UNKNOWN

§ Identity

Operator
Country
UK
Launch date
2021-08-21
Launch site
TYMSC
Launch vehicle
Mass (kg)
RCS (m²)

Purposes: comms

External: N2YO · Heavens-Above · Gunter

§ Orbital elements

Epoch: 2026-09-14T05:40:26.397696Z

Period
109.29 min
Inclination
87.9204°
Eccentricity
0.0001614
Mean motion
13.17648935 rev/d
Perigee alt
1,192.5 km
Apogee alt
1,194.9 km
Semi-major
7,571.9 km
B*
1.3885e-4
RAAN
348.1777°
Arg perigee
109.3071°
Mean anomaly
250.8235°
Rev number
24,533

§ Raw data

ONEWEB-02911 49081U 21075G   26257.23641664  .00000067  00000+0  13885-3 0  99912 49081  87.9204 348.1777 0001614 109.3071 250.8235 13.17648935245333

JSON: /api/v1/satellites/49081 · /tle

For live sub-satellite position, see the globe view (requires WebGL).

§ Visibility from observer

Set your observer location to see the next 7 days of passes ≥ 10°. The values pass through the URL so the page stays shareable.

No JS? Fill the form by hand. The geolocation button needs JavaScript.